[[{"header":{"parameterUnit":"m.s-1","parameterCategory":1,"la1":30.2991,"la2":30.254,"lo1":-89.0895,"lo2":-89.0444,"dy":0.0017,"dx":0.0017,"nx":28,"ny":28,"refTime":"2025-09-12T21:00:00:Z","depth":0,"parameterNumber":2,"parameterNumberName":"U-component_of_WINDS"},"data":[0,0,0,0,0,0,0,0,0,0,0,0,0,0,0,0,0,0,0,0,0,0,0,0,0,0,0,0,0,0,0,0,0,0,0,0,0,0,0,0,0,0,0,0,0,0,0,0,0,0,0,0,0,0,0,0,0,0,-1.8965,-1.8964,0,-1.8933,-1.8933,-1.8932,-1.8897,-1.8897,-1.8896,-1.8896,-1.8864,-1.8863,-1.8863,0,0,0,0,0,0,0,0,0,0,0,0,0,-1.8998,-1.8997,-1.8965,-1.8964,-1.8964,-1.8933,-1.8933,-1.8932,-1.8897,-1.8897,-1.8896,-1.8895,-1.8864,-1.8863,-1.8863,0,0,0,0,0,0,0,0,0,0,0,0,0,-1.8977,-1.8997,-1.8965,-1.8943,-1.8941,-1.8933,-1.8933,-1.8932,-1.8897,-1.8897,-1.8896,-1.8895,-1.8864,-1.8863,-1.8863,-1.8875,0,0,-1.8861,-1.8861,0,0,0,0,0,0,0,0,-1.8978,-1.8975,-1.8946,-1.8944,-1.8942,-1.8918,-1.8932,-1.8913,-1.8898,-1.8914,-1.8896,-1.8895,-1.8883,-1.888,-1.8876,-1.8873,-1.8872,-1.8861,-1.8861,-1.8861,-1.886,0,0,0,0,0,0,0,-1.8979,-1.8977,-1.8952,-1.8946,-1.8943,-1.8935,-1.8931,-1.8929,-1.8903,-1.8912,-1.891,-1.8906,-1.8881,-1.8877,-1.8875,-1.8871,-1.8861,-1.8861,-1.886,-1.886,-1.888,-1.8881,0,0,0,0,0,0,-1.8984,-1.8978,-1.8953,-1.8951,-1.8958,-1.8935,-1.8931,-1.8927,-1.8903,-1.8898,-1.8907,-1.8905,-1.8878,-1.8876,-1.8874,-1.8888,-1.8861,-1.886,-1.886,-1.8879,-1.888,-1.8881,0,0,0,0,0,0,-1.8985,-1.8982,-1.8955,-1.8964,-1.896,-1.8936,-1.8931,-1.8926,-1.8922,-1.8899,-1.8894,-1.8907,-1.8877,-1.8875,-1.8875,-1.8886,-1.886,-1.8859,-1.8878,-1.8879,-1.888,-1.8914,0,0,0,0,0,0,-1.8986,-1.8983,-1.8986,-1.8964,-1.8959,-1.8956,-1.8931,-1.8926,-1.8921,-1.8918,-1.8898,-1.8894,-1.8877,-1.8876,-1.8875,-1.8885,-1.8859,-1.8877,-1.8879,-1.888,-1.8912,-1.8917,-1.8921,0,0,0,0,0,-1.8987,-1.8996,-1.8986,-1.8983,-1.8963,-1.8956,-1.8954,-1.8934,-1.8922,-1.8926,-1.8912,-1.8894,-1.8885,-1.8877,-1.8875,-1.8885,-1.8876,-1.8878,-1.888,-1.891,-1.8916,-1.8921,0,0,0,0,0,0,-1.9019,-1.8993,-1.8981,-1.8984,-1.8973,-1.895,-1.8954,-1.894,-1.8932,-1.8929,-1.8905,-1.8901,-1.8905,-1.8895,-1.8886,-1.8896,-1.8878,-1.888,-1.8902,-1.8907,-1.8911,-1.8914,-1.8858,0,0,0,0,0,-1.9027,-1.9023,-1.9,-1.9005,-1.9,-1.8978,-1.8975,-1.896,-1.8948,-1.8943,-1.8928,-1.8918,-1.8913,-1.8909,-1.8903,-1.8911,-1.8907,-1.8917,-1.8922,-1.8925,-1.8927,-1.8932,-1.8937,-1.8887,-1.8887,-1.8887,0,0,-1.9042,-1.9027,-1.9026,-1.9011,-1.9,-1.8998,-1.8974,-1.8972,-1.897,-1.8943,-1.8943,-1.8932,-1.8919,-1.8924,-1.8925,-1.8915,-1.894,-1.8928,-1.8931,-1.893,-1.8935,-1.894,-1.8944,-1.8889,-1.8888,-1.8888,0,0,-1.9068,-1.9056,-1.9059,-1.905,-1.9035,-1.9021,-1.9022,-1.9003,-1.8995,-1.8995,-1.8974,-1.8973,-1.8964,-1.8956,-1.895,-1.8977,-1.8962,-1.8976,-1.8998,-1.9004,-1.9007,-1.9011,-1.9022,-1.9026,-1.8978,-1.8978,-1.8978,0,-1.9088,-1.9083,-1.9062,-1.9062,-1.9057,-1.9033,-1.9037,-1.9029,-1.9013,-1.901,-1.9,-1.899,-1.8979,-1.8983,-1.899,-1.8986,-1.8988,-1.8978,-1.9008,-1.9012,-1.9014,-1.9025,-1.9029,-1.898,-1.898,-1.898,-1.8979,0,-1.911,-1.9107,-1.9111,-1.9097,-1.9093,-1.9094,-1.9075,-1.9074,-1.9061,-1.9049,-1.9051,-1.9037,-1.9029,-1.9029,-1.9016,-1.9032,-1.9026,-1.9013,-1.8994,-1.9021,-1.9031,-1.9034,-1.8983,-1.8982,-1.8981,-1.8981,0,0,-1.9152,-1.9129,-1.9131,-1.9125,-1.9109,-1.9107,-1.9109,-1.9101,-1.9101,-1.9091,-1.9093,-1.9088,-1.9076,-1.907,-1.9057,-1.9062,-1.9086,-1.9048,-1.9047,-1.9056,-1.9105,-1.9115,-1.912,-1.9077,-1.9077,-1.9078,-1.9106,0,-1.9176,-1.9177,-1.916,-1.9166,-1.9164,-1.9143,-1.9145,-1.9136,-1.9126,-1.9124,-1.9112,-1.9109,-1.9093,-1.909,-1.9094,-1.9082,-1.9096,-1.908,-1.9079,-1.9079,-1.9083,-1.9124,-1.9134,-1.9162,-1.911,-1.911,-1.9111,0,-1.9202,-1.9195,-1.9202,-1.9187,-1.9186,-1.9188,-1.9181,-1.9179,-1.9169,-1.9161,-1.9157,-1.9142,-1.9144,-1.9128,-1.9132,-1.9122,-1.9121,-1.9116,-1.9116,-1.9115,-1.9096,-1.9125,-1.917,-1.9174,-1.9116,-1.9115,-1.9115,0,-1.9234,-1.9226,-1.923,-1.9225,-1.9208,-1.9211,-1.9204,-1.9193,-1.9191,-1.9185,-1.9184,-1.9179,-1.9176,-1.9173,-1.9158,-1.9147,-1.9165,-1.9147,-1.916,-1.916,-1.9163,-1.9163,-1.921,-1.9163,-1.9163,-1.9163,-1.9163,0,-1.9261,-1.9266,-1.9244,-1.9246,-1.9252,-1.9233,-1.924,-1.9231,-1.9223,-1.9224,-1.9205,-1.9207,-1.9187,-1.9187,-1.9176,-1.9182,-1.9181,-1.9176,-1.9173,-1.9177,-1.9178,-1.9176,-1.9173,-1.9164,-1.9164,-1.9164,-1.9163,0,-1.9296,-1.9282,-1.9284,-1.9269,-1.9265,-1.927,-1.9258,-1.926,-1.925,-1.9251,-1.9251,-1.9235,-1.9234,-1.9219,-1.9215,-1.9208,-1.9219,-1.9213,-1.9222,-1.922,-1.9234,-1.9234,-1.9281,-1.9286,-1.9236,-1.9237,-1.9237,0,-1.9315,-1.9318,-1.9304,-1.9304,-1.9298,-1.9297,-1.9295,-1.9278,-1.9277,-1.9268,-1.9272,-1.927,-1.9267,-1.9267,-1.9256,-1.9254,-1.9247,-1.9264,-1.9246,-1.9252,-1.9248,-1.9248,-1.9249,-1.9267,-1.9268,-1.9268,-1.9269,0,-1.9349,-1.9342,-1.9339,-1.9335,-1.9334,-1.9329,-1.9324,-1.9325,-1.9307,-1.9307,-1.9306,-1.9304,-1.9301,-1.93,-1.9296,-1.9291,-1.9277,-1.9275,-1.9278,-1.9282,-1.9288,-1.9286,-1.9232,-1.9273,-1.9273,-1.9273,-1.9272,-1.9272,-1.9376,-1.9379,-1.9371,-1.9369,-1.9364,-1.936,-1.9362,-1.9353,-1.9352,-1.9348,-1.9339,-1.934,-1.9333,-1.9327,-1.9323,-1.9325,-1.9316,-1.932,-1.9322,-1.9323,-1.9326,-1.9289,-1.9324,-1.9324,-1.9324,-1.9324,-1.9323,0,-1.941,-1.9404,-1.9403,-1.9397,-1.9397,-1.9385,-1.9379,-1.938,-1.9381,-1.9376,-1.9374,-1.9375,-1.9375,-1.9365,-1.9364,-1.9367,-1.9362,-1.9368,-1.9367,-1.9366,-1.9333,-1.9331,-1.9373,-1.9373,-1.9373,-1.9373,-1.9373,-1.9373,-1.9428,-1.9433,-1.9426,-1.9429,-1.9423,-1.9424,-1.9422,-1.9419,-1.9415,-1.9417,-1.9417,-1.941,-1.9404,-1.9403,-1.9403,-1.94,-1.9401,-1.9409,-1.9405,-1.9373,-1.9368,-1.9364,-1.9362,-1.9409,-1.941,-1.9438,-1.9438,-1.9438]},{"header":{"parameterUnit":"m.s-1","parameterCategory":1,"la1":30.2991,"la2":30.254,"lo1":-89.0895,"lo2":-89.0444,"dy":0.0017,"dx":0.0017,"nx":28,"ny":28,"refTime":"2025-09-12T21:00:00:Z","depth":0,"parameterNumber":3,"parameterNumberName":"V-component_of_WINDS"},"data":[0,0,0,0,0,0,0,0,0,0,0,0,0,0,0,0,0,0,0,0,0,0,0,0,0,0,0,0,0,0,0,0,0,0,0,0,0,0,0,0,0,0,0,0,0,0,0,0,0,0,0,0,0,0,0,0,0,0,1.2371,1.2371,0,1.2396,1.2396,1.2396,1.2431,1.2432,1.2433,1.2433,1.2456,1.2456,1.2456,0,0,0,0,0,0,0,0,0,0,0,0,0,1.235,1.235,1.2371,1.2371,1.2371,1.2396,1.2396,1.2396,1.2431,1.2432,1.2433,1.2433,1.2456,1.2456,1.2456,0,0,0,0,0,0,0,0,0,0,0,0,0,1.2365,1.235,1.2371,1.2392,1.2394,1.2395,1.2396,1.2396,1.2431,1.2432,1.2433,1.2434,1.2456,1.2456,1.2456,1.2438,0,0,1.2456,1.2456,0,0,0,0,0,0,0,0,1.2364,1.2366,1.2388,1.239,1.2393,1.2411,1.2397,1.241,1.2431,1.2417,1.2433,1.2434,1.244,1.2442,1.2444,1.2439,1.244,1.2456,1.2456,1.2456,1.2456,0,0,0,0,0,0,0,1.2363,1.2365,1.2381,1.2389,1.2391,1.2399,1.2402,1.24,1.2423,1.2418,1.2421,1.2423,1.2442,1.2444,1.2445,1.244,1.2456,1.2456,1.2456,1.2456,1.2418,1.2417,0,0,0,0,0,0,1.2359,1.2364,1.238,1.2381,1.2381,1.2398,1.2402,1.2404,1.2423,1.2427,1.2423,1.2425,1.2443,1.2445,1.2446,1.2424,1.2456,1.2456,1.2456,1.2419,1.2418,1.2417,0,0,0,0,0,0,1.2359,1.236,1.2379,1.2373,1.2376,1.2398,1.24,1.2404,1.2407,1.2427,1.2431,1.2421,1.2444,1.2446,1.2439,1.2425,1.2456,1.2456,1.2421,1.2419,1.2418,1.238,0,0,0,0,0,0,1.2358,1.236,1.2354,1.2373,1.2376,1.2373,1.24,1.2404,1.2407,1.2411,1.2426,1.243,1.2445,1.2439,1.2439,1.2426,1.2456,1.2422,1.242,1.2418,1.2383,1.2378,1.2373,0,0,0,0,0,1.2357,1.2343,1.2354,1.2356,1.237,1.2372,1.2374,1.2393,1.2406,1.24,1.2412,1.2429,1.2427,1.2438,1.2439,1.2425,1.2423,1.2421,1.2418,1.2385,1.2379,1.2373,0,0,0,0,0,0,1.2322,1.2346,1.2358,1.235,1.2359,1.2378,1.2371,1.2386,1.239,1.2393,1.2415,1.2419,1.2408,1.2416,1.2428,1.2407,1.2427,1.2425,1.2402,1.2396,1.2391,1.2388,1.2456,0,0,0,0,0,1.2313,1.2314,1.2335,1.2325,1.2329,1.2349,1.235,1.2364,1.2374,1.2377,1.2389,1.2397,1.2397,1.2397,1.24,1.2385,1.2387,1.2375,1.237,1.2366,1.2363,1.2353,1.2347,1.2409,1.2409,1.2409,0,0,1.2295,1.2308,1.2307,1.2318,1.2327,1.2325,1.2352,1.235,1.2348,1.2377,1.2371,1.2379,1.2389,1.2378,1.2373,1.2384,1.2347,1.2363,1.236,1.2359,1.235,1.2344,1.2339,1.2408,1.2408,1.2408,0,0,1.2261,1.2272,1.2264,1.2272,1.2284,1.2297,1.2295,1.2312,1.2319,1.2313,1.2334,1.2332,1.2334,1.2339,1.2342,1.2307,1.2322,1.2308,1.2282,1.2271,1.2266,1.2262,1.2247,1.2242,1.2305,1.2305,1.2305,0,1.2237,1.2236,1.2258,1.2254,1.2257,1.2283,1.2274,1.228,1.2292,1.2293,1.2305,1.2306,1.2315,1.2303,1.2295,1.2297,1.2293,1.2305,1.2266,1.2261,1.2258,1.2243,1.2238,1.2303,1.2303,1.2303,1.2304,0,1.2204,1.2204,1.2196,1.2206,1.2209,1.2202,1.2221,1.222,1.2234,1.2245,1.2237,1.2249,1.2252,1.2251,1.2264,1.224,1.2246,1.2262,1.2282,1.2249,1.2236,1.2231,1.23,1.2301,1.2301,1.2302,0,0,1.2149,1.2171,1.2167,1.2171,1.2186,1.2185,1.2178,1.2182,1.218,1.2187,1.218,1.218,1.2194,1.2197,1.2211,1.2202,1.2171,1.2219,1.2219,1.2207,1.2142,1.2128,1.2122,1.2181,1.2181,1.218,1.214,0,1.2116,1.2107,1.2125,1.2111,1.2108,1.2133,1.2127,1.2134,1.2144,1.2142,1.2153,1.2152,1.2172,1.2173,1.2166,1.2176,1.2157,1.218,1.2173,1.2173,1.2167,1.2115,1.2102,1.2063,1.2135,1.2135,1.2134,0,1.2076,1.208,1.2066,1.2079,1.2079,1.2073,1.2076,1.2076,1.2083,1.2091,1.2094,1.211,1.2102,1.2123,1.2112,1.2126,1.2125,1.2129,1.2128,1.2127,1.215,1.2109,1.2052,1.2045,1.2127,1.2127,1.2128,0,1.2033,1.2036,1.2027,1.203,1.2046,1.204,1.2046,1.2056,1.2056,1.2059,1.2058,1.206,1.2061,1.2061,1.2076,1.2091,1.2062,1.2085,1.2065,1.2065,1.2057,1.2056,1.1995,1.206,1.206,1.206,1.206,0,1.1993,1.1982,1.2007,1.2001,1.1989,1.201,1.1997,1.2006,1.2013,1.2007,1.2029,1.2023,1.2045,1.2041,1.2053,1.204,1.2041,1.2045,1.2048,1.2042,1.204,1.2039,1.2041,1.2059,1.2059,1.2059,1.2059,0,1.1943,1.1959,1.195,1.1966,1.1969,1.1959,1.1972,1.1966,1.1977,1.197,1.1969,1.1986,1.1982,1.1998,1.1997,1.2005,1.1984,1.1993,1.1982,1.1983,1.1962,1.1962,1.1895,1.1886,1.1959,1.1958,1.1958,0,1.1915,1.1907,1.1921,1.1919,1.1924,1.1921,1.1921,1.1941,1.194,1.1947,1.1939,1.1937,1.1937,1.1929,1.194,1.1939,1.1946,1.1923,1.1946,1.1939,1.1942,1.1941,1.1939,1.1917,1.1916,1.1915,1.1915,0,1.1862,1.187,1.187,1.1871,1.1871,1.1873,1.1877,1.1874,1.1895,1.1892,1.1888,1.1888,1.1886,1.1883,1.1884,1.1889,1.1904,1.1908,1.1902,1.1895,1.1887,1.1888,1.1965,1.1908,1.1909,1.191,1.191,1.191,1.182,1.1813,1.1821,1.1819,1.1824,1.1826,1.1821,1.1831,1.1828,1.1828,1.184,1.1833,1.1839,1.1842,1.1845,1.1839,1.1849,1.1843,1.1841,1.1838,1.1833,1.189,1.1839,1.184,1.184,1.184,1.184,0,1.1766,1.1772,1.1771,1.1774,1.1772,1.1788,1.1792,1.1789,1.1783,1.1787,1.1786,1.178,1.1776,1.1787,1.1785,1.1777,1.1784,1.1776,1.1775,1.1775,1.1825,1.1828,1.177,1.177,1.177,1.177,1.177,1.177,1.1738,1.1726,1.1734,1.1724,1.173,1.1724,1.1724,1.1725,1.1729,1.1721,1.1719,1.1726,1.1732,1.173,1.1726,1.1729,1.1726,1.1715,1.172,1.1765,1.1772,1.1779,1.1782,1.1715,1.1714,1.167,1.167,1.1669]}]]